Tracking 21076 objects as of 10-Aug-2020
HD Live streaming from Space Station
objects crossing your sky now
Track the most recent launched group of Starlink satellites

CZ-2C DEB

Track CZ-2C DEB now!
10-day predictions


NORAD ID: 37770
Int'l Code: 2011-039F
Perigee: 639.6 km
Apogee: 774.6 km
Inclination: 97.8 °
Period: 98.8 minutes
Semi major axis: 7078 km
RCS: 0.0832 m2 (small)
Launch date: July 29, 2011
Source: People's Republic of China (PRC)
Launch site: Jiuquan Satellite Launch Center, China (JSC)

Note: This is SATELLITE DEBRIS
aabbcc
Your satellite tracking list
Your tracking list is empty




NASA's NSSDC Master Catalog

Two Line Element Set (TLE):
1 37770U 11039F   20222.49646233 +.00000498 +00000-0 +11167-3 0  9993
2 37770 097.8332 181.7418 0095361 020.1165 099.4613 14.57911491478921
Source of the keplerian elements: AFSPC